STARLINK-2127 (47403 NORAD) Tracking and Keplerian Element Data

This shows tracking and keplerian element data for the satellite.

Feedback or suggestion? Click here.




ElementValue
Catalog47403
NameSTARLINK-2127
Epoch Orbit177
Epoch Day99.91667824
Epoch Year2021
RAAN181.7398
Inclination53.0543
Eccentricity0.0004055
Argument of Perigee5.9494
Mean Anonmoly45.2366
Mean Motion15.62677031
Decay Rate9.69E-05
L11 47403U 21005BG 21099.91667824 .00009690 00000-0 11186-3 0 9994
L22 47403 53.0543 181.7398 0004055 5.9494 45.2366 15.62677031 1771

Live tracking and technical data element details for STARLINK-2127 (NORAD 47403). STARLINK-2127 can be tracked NOW for your location showing map with azimuth and elevation plus other details from your city location.

Track the satellite on the map from your city or location and see movement details for azimuth, elevation, latitude, longitude, range, height, and movement on the map or in text.







IsCatalogInMostPopularTable: catalog: 47403, numindb: 14
Update: records affected: 1



GetName: 47403 STARLINK-2127

Hit Count: updated at: Sat, 10 Apr 2021 19:36:25 GMT